Flight Information

DEPARTURE
MISSOULA, MT
Elevation:
3205
Runways:
8/26 - 4612x75 - ASPH-G
12/30 - 9501x150 - ASPH-G
ATIS:
126.65
Ground:
121.9
Tower:
MISSOULA TOWER 118.4
DESTINATION
,
Elevation:
TPA:
1000 (est.)


6371.1 NM72° True-18° Var54° HDG

Flight Plan:
(click to file on line)

1. Type
2. Aircraft Identification
3. Aircraft Type / Special Equipment
4. True Airspeed
kts
5. Departure Airport
(ICAO code)
6. Arriving Airport
(ICAO code)
7. Cruising Altitude
ft
8. Alternate Airport
(ICAO code)
9. Route of Flight
10. Remarks


00:00:00 Departure ATIS: Destination ATIS:

Clearance Limit:
Route:
Altitude: Expect in minutes
Frequency:
Transponder: (7500 Hijack / 7600 Lost Comms / 7700 Emergency)


KMSO 281153Z 00000KT 10SM CLR 03/02 A3051 RMK AO2 SLP339 T00280017 10078 20022 53007
Time: 2020-09-28T11:53:00Z
1601294507
Winds: calm
Visibility: 10.0 sm
Clouds (AGL): CLR
Temperature: 2.8 C
Dew Point: 1.7 C
Pressure: 30.510826 in Hgbr


Notes:

Data extracted from FAA Digital Chart Supplement. Effective: 0901Z Thursday, Sep 10, 2020 to 0901Z Thursday, Nov 5, 2020
Current ATIS data is provided courtisy of PilotEdge.